Regional Weather Roundup
Issued by NWS

Home | Current Version | Previous Version | Text Only | Print | Product List | Glossary Off
Versions: 1 2 3 4 5 6 7 8 9 10 11 12 13 14 15 16 17 18 19 20 21 22 23 24 25 26 27 28 29 30 31 32 33 34 35 36 37 38 39 40 41 42 43 44 45 46 47 48 49 50

000
ASUS43 KLSX 070059
RWRMO

WEATHER SUMMARY FOR MISSOURI
NATIONAL WEATHER SERVICE SPRINGFIELD MO
800 PM CDT MON JUL 06 2015

NOTE: "FAIR" INDICATES FEW OR NO CLOUDS BELOW 12,000 FEET WITH NO
       SIGNIFICANT WEATHER AND/OR OBSTRUCTIONS TO VISIBILITY.
       CURRENT SKY AND/OR WEATHER CONDITIONS ARE NOT AVAILABLE FOR
       CHILLICOTHE AND FARMINGTON.

MOZ001>031-035>038-043-044-053-054-070200-
...NORTHERN AND WESTERN MISSOURI...

CITY           SKY/WX    TMP DP  RH WIND       PRES   REMARKS
KANSAS CTY INT LGT RAIN  73  72  96 S6        29.88R
KANSAS C DTWN  CLOUDY    72  71  97 E7        29.86F
LEE`S SUMMIT   TSTM      71  69  93 S5        29.88F
ST JOSEPH      LGT RAIN  72  71  97 MISG      29.88R
CHILLICOTHE      N/A     73  72  96 CALM      29.90R
KIRKSVILLE     LGT RAIN  75  72  90 NW7       29.87R

$$
MOZ066>068-077>081-088>096-101>105-070200-
...SOUTHWEST MISSOURI...

CITY           SKY/WX    TMP DP  RH WIND       PRES   REMARKS
SPRINGFIELD    CLOUDY    80  74  81 S7        29.93F
JOPLIN         CLOUDY    81  73  76 S9        29.92R

$$
MOZ032>034-039>042-045>050-055>058-069>072-070200-
...CENTRAL MISSOURI...

CITY           SKY/WX    TMP DP  RH WIND       PRES   REMARKS
COLUMBIA       CLOUDY    81  74  79 S8        29.87F
JEFFERSON CITY CLOUDY    83  73  72 S6        29.86F
ROLLA          CLOUDY    79  72  79 S12       29.91F
SEDALIA        CLOUDY    82  73  74 S7        29.87F
OSAGE BEACH    CLOUDY    81  73  78 S6        29.89F

$$
MOZ051-052-059>065-070200-
...EAST CENTRAL MISSOURI...

CITY           SKY/WX    TMP DP  RH WIND       PRES   REMARKS
ST LOUIS INTL  CLOUDY    84  74  71 S8        29.90S HX  91
SPIRIT OF STL  MOCLDY    83  76  79 S7        29.89R HX  91
ST CHARLES     MOCLDY    81  74  79 SE8       29.88S

$$
MOZ072>076-082>087-097>100-106>115-070200-
...SOUTH CENTRAL AND SOUTHEAST MISSOURI...

CITY           SKY/WX    TMP DP  RH WIND       PRES   REMARKS
CAPE GIRARDEAU PTCLDY    81  73  76 S9        29.96R
FARMINGTON     PTCLDY    81  73  78 S7        30.00R
POPLAR BLUFF   MOCLDY    82  74  76 S9        29.95S
WEST PLAINS    PTCLDY    80  71  74 S9        29.98S

$$


USA.gov is the U.S. government's official web portal to all federal, state and local government web resources and services.